Temp
58 58 58 57 56 55 56 53 53 71 73 57 51 50 59 64 70 74 69 68 64 62 61 59 57 61 66 70 67 62 58 53 48 58 70 71 64 61 55 48 49 47 49 49
58 58 58 57 56 55 52 49 53 70 71 51 51 56 64 68 68 68 67 66 69 65 58 54 60 63 68 71 65 62 60 49 46 54 61 64 59 61 56 52 48 47 49 48
58 58 58 57 57 56 52 50 49 58 62 57 54 53 57 61 72 70 69 68 66 60 57 59 57 59 68 67 65 69 64 52 49 45 50 59 58 63 63 55 47 47 50 52
58 58 58 58 57 56 53 51 50 56 50 53 53 52 57 59 61 68 67 62 64 59 51 56 57 59 60 66 66 61 59 50 52 55 61 61 65 65 65 57 55 51 54 54
58 58 58 58 57 56 52 49 50 53 50 53 51 51 53 59 62 62 62 59 65 61 55 57 59 59 52 57 58 59 57 51 50 53 63 63 62 67 66 65 61 58 55 55
58 58 58 58 57 55 52 55 56 53 49 50 50 51 57 60 60 65 68 65 61 61 64 68 67 64 60 61 60 57 56 52 47 42 59 58 53 62 62 61 62 59 53 56
57 58 58 58 56 55 56 53 54 52 46 48 52 57 59 56 57 55 65 66 58 63 68 69 69 68 65 65 58 61 53 51 46 44 50 41 56 67 65 59 61 63 62 62
57 58 58 58 57 55 55 57 55 53 48 49 52 55 53 54 54 55 61 66 63 60 62 57 55 55 58 60 63 60 59 50 46 44 43 51 61 65 66 59 53 60 59 61
57 57 57 58 57 55 54 55 57 52 48 48 55 50 51 47 46 51 58 62 66 66 56 54 46 45 52 51 54 59 56 52 49 44 42 40 52 66 69 66 47 59 60 59
57 57 57 58 58 55 54 54 58 51 46 51 53 50 47 49 47 45 50 55 58 63 49 47 47 49 58 51 52 51 50 47 45 41 41 49 57 64 68 54 49 57 56 55
56 57 57 58 59 57 54 54 57 52 47 51 57 57 49 48 47 44 49 53 50 51 47 45 48 50 54 53 55 52 51 45 41 41 39 41 61 63 58 55 57 57 55 55
56 56 57 57 58 58 56 51 55 56 50 50 55 54 57 57 56 49 48 51 54 55 47 47 52 49 52 53 47 54 49 51 47 48 43 53 56 56 58 60 57 55 54 55
56 56 57 57 57 57 56 52 52 51 48 48 48 51 56 55 56 58 52 55 57 53 57 53 49 50 53 47 49 51 53 54 49 47 52 55 58 59 60 61 57 57 56 56
56 56 56 57 56 56 56 51 52 51 49 43 47 59 55 61 58 59 59 55 55 55 57 54 50 48 55 50 53 53 53 54 49 46 51 55 57 58 60 60 60 59 58 57
56 56 56 56 56 55 55 54 52 54 49 43 45 54 56 57 57 58 57 54 50 51 52 50 49 52 53 52 54 51 53 51 47 45 54 50 52 56 60 58 57 57 57 56
56 56 55 55 55 54 52 47 52 54 53 47 42 53 52 54 55 54 54 53 52 53 54 53 52 56 51 45 43 56 55 56 55 52 55 54 56 59 61 58 58 59 57 57
54 55 54 54 53 53 48 47 50 54 54 48 44 45 52 56 54 52 52 55 54 57 52 52 51 51 50 44 43 54 54 58 58 60 59 54 55 54 58 59 58 58 57 56
54 54 54 53 54 52 50 52 54 55 50 49 44 44 47 53 48 46 56 55 57 55 54 50 49 49 47 42 50 54 54 57 56 56 56 55 55 56 57 57 57 55 54 54
54 54 53 52 50 49 50 57 56 54 50 44 46 42 39 52 49 51 56 57 49 54 50 50 51 45 42 49 51 53 55 54 54 55 57 56 55 55 56 56 56 53 53 53
54 53 50 48 52 57 57 52 47 47 48 48 45 49 45 50 51 50 52 52 49 44 49 52 47 45 51 53 56 55 57 58 57 53 51 53 52 53 53 54 55 55 54 53
50 48 47 52 58 52 50 46 45 45 44 47 48 47 47 58 50 49 52 47 48 43 48 47 42 41 50 55 55 54 56 57 56 55 53 53 52 52 52 53 54 55 55 54
50 48 51 50 49 48 46 43 48 46 44 48 47 49 50 51 53 50 50 48 47 42 48 45 39 44 50 53 54 55 57 57 56 56 54 53 54 53 53 52 53 54 54 54
51 48 48 46 45 40 44 38 40 42 47 49 50 48 50 48 49 47 45 45 42 48 42 41 44 46 50 54 56 54 56 56 56 54 54 54 54 55 54 53 54 53 52 52
48 46 37 44 43 44 42 42 45 48 49 49 48 46 46 47 45 46 43 45 44 38 36 40 43 45 47 51 54 54 53 53 53 51 52 52 52 52 54 53 53 52 50 51
46 48 39 46 46 50 52 50 47 50 49 48 47 46 45 44 45 44 45 42 38 36 36 43 47 47 47 47 51 51 51 51 49 49 49 50 51 52 50 51 51 51 50 50
49 49 45 45 44 44 49 49 45 47 49 49 45 42 41 39 41 41 40 38 35 41 44 47 49 49 48 49 50 50 50 48 47 48 49 50 51 50 49 53 52 52 51 52
51 48 50 45 44 43 44 45 45 49 50 41 43 38 37 41 39 39 40 39 41 43 44 48 50 49 48 49 49 50 49 48 47 48 48 52 53 53 52 48 47 53 52 52
MSLP
1017.55 1017.08 1016.57 1016.08 1015.40 1014.35 1013.16 1013.19 1011.74 1007.72 1007.47 1009.45 1010.15 1010.35 1008.99 1007.59 1006.26 1005.64 1005.40 1004.46 1004.54 1004.81 1005.06 1005.37 1005.55 1005.03 1004.70 1004.61 1005.05 1006.17 1006.63 1007.58 1007.72 1006.57 1004.93 1004.63 1005.60 1006.42 1007.75 1009.64 1010.54 1010.86 1010.98 1012.04
1017.37 1016.94 1016.55 1016.22 1015.79 1015.42 1015.20 1014.26 1012.03 1007.92 1008.13 1009.29 1010.12 1009.43 1008.68 1007.76 1006.61 1005.79 1005.21 1004.63 1004.36 1004.33 1004.88 1005.26 1005.12 1004.90 1004.72 1004.65 1005.11 1006.06 1006.68 1008.13 1008.44 1007.48 1006.50 1006.11 1006.38 1006.60 1007.02 1008.39 1009.65 1010.75 1011.55 1012.32
1017.15 1016.79 1016.44 1016.21 1015.93 1015.72 1015.65 1014.91 1013.09 1010.08 1008.79 1009.29 1009.79 1010.02 1008.83 1007.76 1006.56 1005.64 1005.11 1004.67 1004.10 1004.48 1004.68 1004.93 1005.22 1005.21 1005.02 1005.07 1005.35 1005.92 1006.46 1008.30 1009.00 1008.95 1008.62 1008.15 1007.44 1006.98 1006.87 1007.70 1009.49 1010.70 1011.03 1011.92
1016.82 1016.55 1016.30 1016.07 1015.83 1015.69 1015.83 1014.91 1013.53 1011.71 1011.03 1010.73 1010.83 1010.28 1009.17 1008.18 1007.04 1005.87 1005.31 1004.81 1004.25 1004.66 1005.03 1004.75 1005.24 1005.70 1005.53 1005.67 1005.90 1006.28 1007.04 1008.73 1008.91 1008.75 1008.42 1007.80 1007.34 1007.00 1006.59 1007.35 1008.17 1009.58 1010.58 1011.31
1016.49 1016.26 1016.06 1015.89 1015.72 1015.53 1015.66 1015.05 1013.97 1012.78 1012.08 1011.32 1010.99 1010.22 1009.49 1008.68 1007.64 1007.18 1006.20 1005.89 1005.23 1004.69 1004.96 1005.13 1005.26 1005.44 1005.77 1006.01 1006.57 1007.01 1007.79 1008.92 1009.07 1009.07 1008.28 1007.97 1007.50 1007.07 1006.72 1006.90 1007.90 1008.87 1010.23 1010.97
1016.17 1015.87 1015.72 1015.64 1015.59 1015.51 1015.20 1014.02 1013.54 1013.42 1012.64 1012.03 1011.59 1010.61 1009.90 1009.28 1008.67 1007.21 1006.58 1005.90 1005.63 1005.47 1005.02 1004.60 1004.81 1004.69 1005.25 1005.55 1006.39 1007.51 1008.29 1009.21 1010.24 1010.07 1008.92 1008.39 1007.90 1007.68 1007.65 1008.25 1008.36 1008.85 1010.06 1010.60
1015.74 1015.39 1015.25 1015.19 1015.20 1015.31 1015.07 1014.58 1014.26 1014.01 1013.11 1012.55 1011.76 1011.04 1010.52 1010.03 1009.54 1008.88 1007.13 1006.18 1005.80 1005.99 1005.49 1004.86 1004.71 1005.42 1005.33 1006.08 1006.70 1006.82 1008.40 1009.66 1010.45 1010.96 1009.86 1009.24 1008.26 1007.67 1008.15 1009.19 1009.83 1009.91 1010.39 1011.39
1015.12 1014.98 1014.69 1014.62 1014.67 1014.78 1014.88 1014.48 1014.37 1014.00 1013.33 1012.55 1011.92 1011.46 1011.08 1010.49 1009.70 1008.97 1007.75 1006.85 1006.30 1005.80 1006.19 1006.69 1006.21 1007.04 1006.98 1007.30 1007.18 1007.64 1008.22 1009.80 1011.04 1011.24 1010.99 1009.98 1008.85 1008.62 1008.01 1009.38 1011.94 1011.96 1011.69 1012.07
1014.58 1014.24 1014.15 1013.94 1013.98 1014.26 1014.55 1014.27 1014.15 1014.15 1013.78 1012.55 1011.98 1011.90 1011.53 1011.36 1010.79 1009.82 1008.33 1007.12 1006.26 1006.32 1007.58 1007.48 1007.13 1007.86 1007.78 1007.41 1007.53 1007.83 1008.80 1009.51 1011.00 1011.79 1011.48 1010.79 1009.68 1009.20 1008.31 1009.29 1012.40 1013.10 1013.33 1013.32
1013.73 1013.78 1013.59 1013.33 1013.28 1013.37 1013.88 1013.80 1013.77 1013.82 1013.67 1012.58 1012.10 1012.02 1011.94 1011.68 1011.43 1010.99 1009.76 1008.65 1007.82 1007.02 1008.78 1008.64 1008.30 1008.04 1008.06 1007.67 1007.90 1008.91 1009.66 1010.87 1011.60 1011.98 1011.58 1010.64 1009.84 1009.39 1008.88 1010.38 1012.65 1013.28 1013.84 1014.11
1012.65 1012.53 1012.55 1012.77 1012.81 1012.66 1012.89 1012.96 1013.29 1013.57 1013.44 1012.62 1011.95 1011.76 1011.85 1011.81 1011.76 1011.58 1010.40 1009.64 1009.47 1009.13 1009.94 1009.41 1008.83 1008.05 1008.47 1007.93 1008.10 1008.89 1009.95 1010.90 1011.74 1012.02 1011.77 1011.31 1010.10 1009.65 1010.00 1011.15 1012.58 1013.75 1014.28 1014.47
1011.51 1011.45 1011.54 1011.69 1011.97 1012.26 1012.49 1012.44 1012.38 1012.98 1013.53 1012.60 1012.01 1011.50 1011.03 1011.10 1011.05 1011.56 1011.42 1010.44 1010.28 1010.08 1010.58 1010.57 1009.67 1009.02 1008.76 1009.02 1008.73 1008.57 1009.10 1009.21 1010.44 1011.36 1011.39 1011.15 1010.58 1010.47 1011.11 1011.82 1012.90 1014.18 1014.61 1014.97
1010.27 1010.33 1010.44 1010.70 1010.98 1011.40 1011.82 1011.88 1012.37 1012.82 1013.03 1012.48 1012.05 1010.90 1010.25 1010.48 1010.62 1010.88 1011.32 1010.65 1010.46 1010.66 1010.00 1009.71 1009.51 1009.37 1009.13 1009.22 1008.82 1008.41 1008.40 1008.73 1010.08 1011.18 1012.21 1011.69 1011.49 1011.67 1011.88 1012.29 1013.14 1013.91 1014.50 1014.93
1009.17 1009.25 1009.46 1009.78 1010.23 1010.62 1011.05 1011.29 1011.60 1011.94 1012.44 1012.01 1010.62 1009.58 1009.87 1009.15 1009.93 1010.45 1010.68 1010.87 1010.52 1010.80 1010.21 1009.84 1009.53 1009.44 1008.77 1008.86 1008.27 1008.20 1008.37 1008.64 1010.08 1011.37 1012.15 1012.26 1012.22 1012.12 1012.28 1012.84 1013.29 1013.91 1014.46 1014.64
1008.27 1008.53 1008.82 1009.13 1009.47 1009.89 1010.34 1010.61 1010.90 1011.08 1011.62 1011.31 1010.49 1009.53 1009.03 1009.14 1009.56 1009.77 1010.21 1010.52 1010.88 1010.92 1010.05 1009.31 1008.86 1008.46 1008.48 1008.42 1008.42 1008.83 1008.63 1008.91 1009.82 1011.00 1011.10 1011.53 1012.27 1012.29 1012.50 1013.07 1013.63 1013.98 1014.38 1014.77
1008.27 1008.40 1008.63 1008.88 1009.15 1009.61 1010.02 1010.51 1010.72 1010.75 1011.14 1011.11 1010.45 1009.35 1008.93 1009.10 1009.39 1009.61 1010.03 1010.35 1010.72 1010.96 1009.32 1008.55 1007.92 1007.54 1008.13 1009.24 1009.89 1008.91 1008.59 1008.38 1008.54 1010.05 1010.96 1011.44 1012.05 1012.31 1012.65 1013.21 1013.61 1014.00 1014.43 1014.67
1009.13 1008.86 1009.01 1009.18 1009.39 1009.67 1010.00 1010.32 1010.32 1010.40 1010.90 1010.82 1010.10 1009.27 1008.99 1008.90 1009.17 1009.54 1009.83 1010.32 1010.13 1009.09 1008.51 1008.41 1007.94 1008.11 1008.22 1009.34 1009.83 1009.17 1009.24 1009.02 1009.34 1009.88 1010.66 1012.13 1012.39 1012.89 1013.00 1013.30 1013.79 1014.08 1014.63 1014.92
1010.45 1010.13 1010.01 1009.92 1009.89 1010.04 1010.14 1010.23 1010.17 1010.52 1010.72 1010.45 1009.60 1009.29 1008.87 1008.86 1009.27 1009.52 1009.12 1008.29 1008.16 1007.83 1007.52 1007.80 1008.14 1008.47 1008.82 1009.79 1009.43 1009.26 1009.74 1009.61 1010.21 1010.56 1010.76 1011.59 1012.43 1012.89 1013.34 1013.60 1014.00 1014.64 1015.11 1015.36
1011.05 1010.84 1010.59 1010.45 1010.10 1009.95 1010.32 1010.25 1010.46 1010.68 1011.07 1010.26 1009.10 1009.05 1009.29 1009.45 1009.30 1008.51 1007.57 1007.57 1008.26 1007.44 1007.43 1007.66 1008.01 1008.89 1009.15 1008.84 1008.79 1009.47 1009.79 1009.80 1010.60 1010.93 1011.37 1012.05 1012.61 1013.02 1013.34 1013.76 1014.24 1014.70 1015.07 1015.38
1010.71 1010.77 1010.62 1010.32 1010.07 1009.97 1010.31 1010.74 1010.88 1010.94 1010.41 1009.91 1009.05 1008.65 1008.69 1008.76 1008.09 1007.66 1007.51 1007.21 1007.39 1007.58 1007.60 1007.67 1008.31 1008.93 1008.22 1007.89 1007.92 1008.28 1009.02 1009.42 1010.06 1011.11 1011.95 1012.28 1012.86 1013.27 1013.57 1013.80 1014.08 1014.29 1014.60 1014.99
1010.80 1010.95 1011.06 1010.72 1010.36 1010.36 1010.09 1010.08 1010.16 1009.93 1009.88 1009.30 1008.48 1008.61 1008.33 1007.56 1007.35 1007.49 1007.35 1007.57 1007.81 1008.19 1008.10 1008.28 1008.81 1008.73 1008.18 1007.65 1007.81 1008.04 1008.61 1009.30 1009.90 1010.42 1011.35 1011.88 1012.59 1013.22 1013.68 1013.95 1014.04 1014.18 1014.25 1014.67
1011.31 1011.58 1011.18 1010.80 1010.49 1010.16 1010.05 1009.61 1009.06 1008.93 1009.42 1008.91 1008.64 1007.96 1007.98 1007.89 1007.64 1007.58 1007.74 1007.78 1008.17 1008.47 1008.23 1008.72 1008.98 1008.49 1007.65 1007.46 1008.07 1008.74 1009.07 1009.67 1010.45 1010.95 1011.70 1012.30 1012.78 1013.23 1013.70 1014.04 1014.26 1014.38 1014.52 1014.69
1011.03 1011.30 1011.19 1010.95 1010.51 1010.30 1010.20 1010.09 1009.74 1009.28 1009.23 1009.08 1008.59 1008.10 1007.84 1008.13 1008.62 1008.78 1008.84 1008.59 1008.79 1008.32 1009.07 1009.34 1009.23 1008.50 1008.11 1007.99 1008.47 1009.35 1009.73 1010.24 1010.95 1011.67 1012.18 1012.69 1013.12 1013.42 1013.65 1014.05 1014.24 1014.52 1014.71 1014.70
1011.27 1011.10 1011.00 1010.92 1010.52 1010.57 1010.54 1010.34 1010.09 1009.73 1009.47 1008.86 1008.80 1008.79 1008.97 1009.41 1009.77 1009.94 1010.10 1009.33 1009.25 1009.64 1010.24 1010.20 1009.79 1009.22 1008.77 1008.69 1008.95 1009.40 1010.42 1010.86 1011.58 1012.23 1012.67 1013.19 1013.58 1013.90 1014.06 1014.22 1014.41 1014.72 1015.10 1015.18
1011.19 1010.82 1011.10 1010.83 1010.71 1010.33 1010.03 1010.00 1010.02 1009.76 1009.49 1009.50 1009.63 1009.71 1009.88 1010.59 1011.02 1011.21 1010.46 1010.14 1010.34 1010.72 1011.16 1011.22 1010.92 1010.64 1010.29 1009.98 1010.10 1010.44 1011.15 1011.86 1012.56 1012.89 1013.34 1013.73 1013.98 1014.25 1014.49 1014.62 1014.74 1015.06 1015.41 1015.45
1010.79 1010.65 1010.84 1010.92 1010.92 1010.91 1010.53 1010.48 1010.54 1010.01 1009.86 1009.84 1010.23 1010.61 1011.00 1011.62 1011.59 1011.61 1011.33 1011.26 1011.66 1011.99 1012.03 1011.68 1011.36 1011.26 1011.37 1011.39 1011.54 1011.82 1012.22 1012.63 1013.16 1013.51 1013.86 1014.00 1014.22 1014.60 1014.96 1014.93 1015.12 1015.38 1015.56 1015.73
1010.61 1010.94 1010.82 1010.97 1011.25 1011.32 1011.18 1010.97 1010.80 1010.17 1010.43 1011.27 1011.58 1011.84 1012.44 1012.37 1012.28 1012.28 1012.35 1012.39 1012.69 1012.86 1012.48 1011.95 1011.72 1011.83 1012.34 1012.34 1012.40 1012.72 1012.98 1013.37 1013.68 1013.97 1014.34 1014.50 1014.69 1014.85 1015.20 1015.64 1015.94 1015.76 1015.83 1015.95
Wind_Speed
14 14 14 15 16 22 7 3 3 4 3 3 1 3 5 4 9 15 9 3 4 5 2 4 5 11 9 5 4 6 3 6 1 5 8 6 7 7 6 7 6 2 4 1
13 13 13 12 13 12 3 3 5 6 7 3 4 6 6 7 10 8 7 5 6 2 2 2 3 5 2 6 5 8 5 2 4 12 8 9 6 4 6 5 4 4 5 4
12 12 12 11 10 10 1 3 4 6 5 1 3 5 6 5 7 7 4 8 5 2 3 5 4 2 3 2 5 6 8 3 8 7 6 4 6 10 7 8 4 5 5 7
12 11 11 11 10 9 2 1 5 4 3 4 5 2 4 6 7 2 7 7 5 4 3 3 6 2 4 5 5 4 7 5 4 6 5 2 5 9 8 5 6 5 6 7
12 11 10 9 9 6 1 2 2 6 4 4 2 2 3 4 7 6 7 3 12 3 5 4 5 7 3 6 1 4 2 3 3 2 2 4 6 10 12 6 8 9 8 4
15 12 10 9 8 2 1 3 4 4 5 4 3 4 4 8 9 5 5 5 4 9 4 4 4 6 5 9 9 4 5 5 4 3 2 4 5 4 5 8 5 12 7 7
16 14 11 9 8 7 1 3 1 1 5 2 4 6 6 8 9 5 8 1 4 3 9 3 6 7 9 9 5 4 7 6 4 3 2 4 6 8 17 17 12 12 12 9
16 15 13 10 9 8 3 2 1 2 4 3 6 6 4 7 8 4 5 4 3 2 5 2 5 5 6 2 5 6 6 5 3 6 3 5 3 2 4 6 3 10 8 12
17 15 15 12 10 9 3 2 2 2 1 5 5 4 3 4 3 7 5 3 3 9 3 2 4 4 5 2 1 4 7 7 6 2 5 7 5 5 8 7 2 2 4 4
16 17 16 16 12 11 5 3 5 2 3 4 2 3 3 1 1 3 5 6 7 4 5 2 2 5 3 8 8 4 3 3 6 2 3 4 1 4 2 7 6 5 5 3
19 17 15 16 15 12 8 2 5 4 3 4 4 6 6 2 2 2 5 4 6 4 3 1 3 5 5 3 6 9 8 7 5 3 4 5 2 3 5 6 7 10 5 4
21 19 18 16 14 12 13 2 4 4 3 3 2 6 7 6 5 4 3 5 2 3 3 3 1 2 3 2 8 2 4 8 7 6 7 4 3 7 7 11 12 5 8 4
20 20 19 17 16 15 12 3 4 3 1 3 3 10 9 5 6 4 4 3 4 3 1 4 2 4 4 2 6 3 1 4 7 7 4 6 7 7 7 10 9 8 7 7
17 17 17 16 15 14 15 4 4 3 3 3 5 6 8 7 9 7 3 2 4 1 3 3 2 3 5 6 4 3 5 4 8 4 5 6 4 7 9 9 9 8 7 6
13 12 12 12 12 12 7 3 5 4 3 2 3 5 5 6 10 13 6 1 1 2 4 3 5 4 3 2 6 1 2 7 6 6 11 7 5 6 7 8 6 8 6 5
6 2 4 6 8 10 3 2 4 6 3 1 2 3 2 5 9 9 9 5 4 4 4 5 1 1 6 4 4 2 1 3 7 6 8 7 8 9 6 6 7 6 7 6
19 7 9 9 10 3 2 1 0 9 3 2 3 3 2 8 5 2 1 5 7 7 4 4 4 1 5 4 2 3 2 13 15 15 16 8 4 6 6 8 7 7 6 4
14 13 9 10 7 3 1 1 7 5 1 3 2 2 0 3 3 1 7 4 2 3 3 2 4 2 3 2 4 7 5 11 9 8 7 9 8 8 7 6 6 6 5 4
5 4 3 3 1 2 2 8 9 1 1 2 2 3 1 3 3 4 3 4 4 3 3 1 5 0 2 7 7 9 12 9 12 9 13 10 9 9 7 6 6 6 7 6
3 1 2 2 1 16 12 0 2 2 3 3 2 2 2 4 2 3 0 2 1 2 4 3 4 4 4 8 9 8 12 14 13 11 7 7 5 6 6 8 6 7 7 6
3 4 2 2 9 1 2 2 2 3 2 2 2 3 2 4 2 3 1 1 1 2 5 5 2 3 6 8 8 8 11 12 8 10 8 8 10 8 7 5 5 4 6 6
2 1 3 2 2 2 2 3 3 2 3 0 2 3 5 0 1 3 3 3 3 4 1 3 2 5 4 7 9 10 14 15 14 12 11 9 9 7 6 6 6 4 5 3
2 1 2 2 2 4 3 5 5 4 3 2 4 3 2 4 5 3 4 3 4 2 3 2 5 3 3 11 14 12 13 16 14 11 9 9 7 6 5 5 4 7 6 4
2 2 5 2 3 3 1 1 2 3 3 6 3 3 3 2 5 3 4 2 3 3 1 3 4 4 5 7 10 16 13 13 12 10 9 8 6 5 6 6 6 7 6 4
2 1 2 3 3 2 1 1 2 4 3 3 2 3 3 2 3 2 3 1 2 2 1 3 7 5 3 7 10 12 12 11 9 7 7 7 7 6 5 5 6 7 6 6
1 3 4 4 3 5 4 2 1 3 4 3 4 2 3 3 1 2 2 2 1 2 3 5 3 4 7 6 8 9 9 9 7 7 6 7 7 7 6 7 8 7 7 6
2 2 1 3 2 2 2 1 3 4 3 2 2 4 2 2 1 1 3 2 2 3 5 5 3 10 8 8 7 8 9 8 7 7 6 7 5 6 8 9 4 6 5 6
Wind_Direction
322 327 333 337 342 336 35 358 356 291 52 85 177 182 215 255 291 311 290 260 199 203 257 261 245 187 186 176 157 132 193 133 320 270 290 170 159 183 140 121 268 119 155 248
321 325 329 336 347 13 334 340 266 293 112 172 260 275 274 257 280 278 250 240 208 205 242 311 229 130 255 163 110 159 193 32 27 341 358 7 27 314 156 125 84 182 120 221
315 318 323 328 338 350 52 357 335 312 36 39 125 358 286 298 289 278 313 241 110 16 281 179 198 180 172 118 115 110 87 112 145 186 195 241 308 314 260 122 102 168 200 137
308 311 312 315 324 342 8 167 253 234 293 333 327 273 283 318 326 318 346 311 168 147 302 299 158 220 95 36 154 75 104 139 150 202 210 299 298 314 322 172 162 133 197 179
302 303 301 302 309 324 118 257 8 343 284 279 315 290 266 287 320 358 319 358 329 226 151 209 216 152 170 180 214 114 31 184 137 251 282 10 309 347 28 74 116 101 141 105
299 294 289 287 288 330 243 293 335 107 269 318 15 243 333 336 355 309 335 304 19 352 172 151 348 186 161 171 145 132 112 120 87 250 302 30 343 83 96 63 18 139 152 186
295 290 279 270 261 218 274 257 355 307 272 238 231 329 338 347 324 269 301 78 109 286 325 304 49 24 80 95 51 108 123 110 113 184 46 176 235 115 107 88 45 60 89 128
286 286 277 261 254 227 225 287 234 240 247 246 299 304 315 323 310 277 260 276 205 278 25 349 81 9 25 7 111 87 104 117 105 130 168 287 92 118 127 135 6 6 77 112
284 279 279 268 241 229 207 219 236 234 211 226 245 275 266 272 290 312 316 319 292 61 44 339 135 168 191 176 57 75 84 90 111 127 149 191 204 100 113 115 110 335 75 52
275 278 270 264 247 214 182 221 198 153 209 256 187 199 231 275 269 249 292 338 354 72 20 61 169 155 254 180 196 158 79 46 155 177 176 267 336 299 245 142 194 116 117 90
264 259 256 255 253 225 180 190 192 175 215 255 212 191 206 213 191 211 288 26 349 23 42 121 273 114 241 116 176 166 172 155 194 135 138 253 272 4 162 149 98 116 87 61
259 254 248 247 244 237 202 199 177 161 216 282 303 264 252 232 206 165 281 168 224 234 104 276 163 1 83 67 279 146 177 172 172 161 200 239 338 129 110 117 122 126 119 133
258 252 245 238 230 223 207 154 142 123 224 267 242 236 228 161 182 170 194 239 94 343 257 210 175 159 91 215 228 139 32 136 107 91 292 134 106 101 117 129 129 139 141 149
258 250 243 235 225 215 204 179 162 132 162 247 268 221 236 190 175 198 193 353 355 264 317 270 124 246 174 200 178 118 202 113 128 72 77 71 40 134 144 135 131 127 143 149
254 245 236 228 216 205 204 169 181 180 179 247 273 300 205 147 180 198 172 333 339 311 306 197 200 176 127 332 51 247 198 164 132 200 175 136 176 174 133 125 142 148 136 134
18 240 225 207 197 156 130 176 175 190 183 261 279 275 200 162 194 197 201 226 276 235 206 232 124 234 100 101 177 284 263 84 143 150 140 127 133 105 112 124 160 160 150 153
32 79 90 96 101 89 128 171 144 164 168 223 224 243 345 163 140 106 252 226 246 215 207 229 142 143 89 94 151 72 142 108 101 112 110 78 118 146 113 106 99 113 110 113
33 52 74 48 20 122 113 30 155 136 131 250 250 358 336 39 89 230 211 212 158 279 212 39 110 27 88 121 209 126 145 118 116 125 111 140 134 126 124 129 122 123 153 164
26 40 19 311 355 28 59 110 113 32 53 297 265 109 128 127 249 235 177 122 214 252 108 133 91 160 166 204 202 141 162 159 160 125 123 126 132 153 154 155 178 173 196 183
285 329 280 31 351 119 131 307 133 185 233 223 304 37 129 190 229 301 263 -0 37 68 247 95 101 222 235 200 199 172 174 146 140 117 127 133 131 159 179 193 203 200 199 168
12 6 40 349 157 284 227 204 225 165 195 259 259 143 145 273 196 188 96 147 127 87 267 122 222 250 227 203 198 157 146 146 133 115 111 120 133 123 111 90 129 135 155 170
232 254 278 285 254 278 317 293 321 12 44 223 290 228 188 78 106 87 347 124 72 210 198 106 232 256 268 144 126 117 119 119 114 115 113 109 106 112 100 139 131 127 119 137
112 178 188 111 272 33 14 354 326 9 9 331 300 346 89 37 57 39 13 73 216 43 69 219 225 252 136 119 117 109 111 109 106 99 100 106 105 80 95 125 96 122 109 118
352 345 352 26 9 30 326 265 298 275 335 338 10 7 59 47 57 35 327 262 63 55 78 243 322 242 149 118 120 114 111 107 105 99 106 113 114 106 96 100 127 123 118 113
280 150 35 18 277 260 253 134 16 331 326 24 356 33 82 61 85 237 277 262 241 109 221 335 322 334 22 83 103 109 108 107 105 104 102 114 103 115 100 99 118 104 111 108
262 52 19 330 47 346 8 32 351 308 331 27 28 50 60 56 95 272 26 53 118 83 332 302 309 80 69 79 83 95 105 103 104 107 111 98 101 122 109 83 95 105 104 87
53 14 301 143 134 205 290 63 312 306 53 68 23 30 54 305 130 172 8 74 63 328 305 327 114 93 78 82 81 105 109 106 108 107 99 92 98 99 101 97 87 100 98 106